Regional Weather Roundup
Issued by NWS Portland, ME

Current Version | Previous Version | Text Only | Print | Product List | Glossary Off
Versions: 1 2 3 4 5 6 7 8 9 10 11 12 13 14 15 16 17 18 19 20 21 22 23 24 25 26 27 28 29 30 31 32 33 34 35 36 37 38 39 40 41 42 43 44 45 46 47 48 49 50
000 ASUS41 KGYX 192010 RWRGYX WEATHER ROUNDUP FOR MAINE AND NEW HAMPSHIRE NATIONAL WEATHER SERVICE GRAY ME 400 PM EDT SUN AUG 19 2018 MEZ002-005-006-010-012-015-018-020-021-024-026-027-029-192100- MAINE CITY SKY/WX TMP DP RH WIND PRES REMARKS PORTLAND FAIR 72 60 66 E10 30.08R SANFORD FAIR 72 60 66 SE8 30.08R WISCASSET FAIR 79 54 41 N6 30.07S ROCKLAND FAIR 74 59 59 NE8 30.07R FRYEBURG FAIR 77 56 48 SE5 30.07F LEWISTONAUBURN N/A 76 56 49 NE8 30.07S AUGUSTA FAIR 77 53 43 NE8 30.08S WATERVILLE FAIR 75 55 49 VRB5 30.06S BANGOR PTSUNNY 76 54 46 NE9 30.08S GREENVILLE NOT AVBL MILLINOCKET FAIR 74 53 48 NE7 30.11F HOULTON FAIR 74 55 51 E6 30.10S PRESQUE ISLE FAIR 73 52 47 SE3 30.12 FRENCHVILLE PTSUNNY 73 51 46 VRB3 30.13F CARIBOU FAIR 75 50 41 VRB3 30.11F $$ NHZ002-005-008-009-011-012-014-192100- NEW HAMPSHIRE CITY SKY/WX TMP DP RH WIND PRES REMARKS PORTSMOUTH PTSUNNY 69 58 65 E16 30.06S ROCHESTER FAIR 71 61 70 SE13 30.07R NASHUA FAIR 76 58 53 SE14 30.06F MANCHESTER PTSUNNY 76 55 48 E8 30.04S CONCORD FAIR 78 57 48 E8 30.04F LACONIA FAIR 76 58 53 E12 30.06F PLYMOUTH FAIR 78 54 43 E5 30.05S BERLIN FAIR 79 54 41 E8 30.08F WHITEFIELD FAIR 78 53 41 E7 30.07F JAFFREY FAIR 75 56 51 VRB3 30.08F KEENE PTSUNNY N/A N/A N/A VRB5 30.05F LEBANON FAIR 79 54 41 SE6 30.05S MT WASHINGTON MOSUNNY 50 43 76 NE2 N/A $$ VTZ005-007-008-192100- VERMONT CITY SKY/WX TMP DP RH WIND PRES REMARKS ST JOHNSBURY N/A 79 53 40 MISG 30.04S MONTPELIER FAIR 76 56 49 S7 30.10S BURLINGTON FAIR 82 58 43 N10 30.03S $$ MAZ007-012-024-CTZ003-RIZ002-NYZ038-NYZ072-192100- SOUTHERN NEW ENGLAND AND NY CITY SKY/WX TMP DP RH WIND PRES REMARKS BOSTON PTSUNNY 72 60 66 NE16 30.06S WORCESTER FAIR 70 54 56 E14G22 30.06S NANTUCKET CLOUDY 69 64 84 N17 29.99R PROVIDENCE PTSUNNY 73 58 59 NE17 30.03R HARTFORD PTSUNNY 77 56 48 NE9 30.02R ALBANY PTSUNNY 80 56 43 E8 30.03S NEW YORK CITY LGT RAIN 72 65 78 N9 30.00R $$ ANZ081-ANZ082-ANZ150-NHZ014-MEZ023>029-192100- COASTAL MARINE OBSERVATIONS STATION/POSITION TIME TEMP WIND PRES WAVE AIR SEA DIR/SP/G HT/PER (UTC) (F) (DEG/KT/KT) (MB) (FT/S) MOUNT DESERT ROC 2000 60 30/ 17/ 18 1017.9S MATINICUS ROCK 1900 64 40/ 12/ 13 1017.5F ISLE OF SHOALS 1900 65 70/ 17/ 18 1017.5R JEFFREYS LEDGE 1936 68 N/A 6/ 6 $$ .............KEY.............. WCI - WIND CHILL TC - TEMPERATURE IN CELSIUS VSB - VISIBILITY IN MILES HX - HEAT INDEX FAIR- INDICATES FEW OR NO CLOUDS BELOW 12,000 FT, WITH NO SIGNIFICANT WEATHER AND/OR OBSTRUCTIONS TO VISIBILITY.

USA.gov is the U.S. government's official web portal to all federal, state and local government web resources and services.